{"data":{"norad_id":66086,"intl_designator":"2025-236A","name":"STARLINK-35596","alt_names":[],"object_type":"PAYLOAD","status":"ACTIVE","operator":null,"country":"US","launch_date":"2025-10-19","launch_site_code":"AFWTR","launch_vehicle":null,"mission":null,"orbit_class":"UNKNOWN","rcs_meters":null,"size_class":null,"mass_kg":null,"dimensions":null,"purposes":["comms"],"wikipedia_slug":null,"has_3d_model":false,"image_url":null,"decayed_at":null,"tle_current":{"epoch":"2026-05-25T03:08:21.096672Z","epoch_age_seconds":73825,"freshness":"FRESH","line1":"1 66086U 25236A   26145.13079973  .00044018  00000+0  14877-2 0  9996","line2":"2 66086  53.1576 109.1264 0001152 116.6570 243.4549 15.30239928 34643","mean_motion":15.30239928,"eccentricity":0.0001152,"inclination_deg":53.1576,"raan_deg":109.1264,"arg_perigee_deg":116.657,"mean_anomaly_deg":243.4549,"bstar":0.0014877,"rev_number":3464,"period_min":94.102890249509,"perigee_km":474.30636177585,"apogee_km":475.88534662546,"semimajor_km":6853.2328542007,"source":"CELESTRAK","updated_at":"2026-05-25T13:38:21.026452Z"}}}